Regional Weather Roundup
Issued by NWS Binghamton, NY

Home | Current Version | Previous Version | Text Only | Print | Product List | Glossary On
Versions: 1 2 3 4 5 6 7 8 9 10 11 12 13 14 15 16 17 18 19 20 21 22 23 24 25 26 27 28 29 30 31 32 33 34 35 36 37 38 39 40 41 42 43 44 45 46 47 48 49 50
842
ASUS41 KBGM 211810
RWRBGM

REGIONAL WEATHER ROUNDUP
NATIONAL WEATHER SERVICE BINGHAMTON NY
200 PM EDT SAT SEP 21 2019

Note: "fair" indicates few or no clouds below 12,000 feet with no
significant weather and/or obstructions to visibility.

* = Station(s) that does not report precipitation, such as rain,
snow, etc, also no thunder or fog.

NYZ009-015>018-022>025-036-037-044>046-055>057-062-211900
...Central New York...

CITY           SKY/WX    TMP DP  RH WIND       PRES   REMARKS
Binghamton     FAIR      75  54  47 MISG      30.23F
Cortland       FAIR      77  46  33 CALM      30.22S
Dansville      FAIR      82  52  35 NE3       30.19F
Elmira         FAIR      80  57  45 S5        30.19F
Endicott       CLEAR     75  57  53 W5        30.20F
Ithaca         FAIR      78  57  48 N3        30.22F
Hamilton       SUNNY     77  43  29 CALM      30.22S
Monticello     FAIR      78  46  32 CALM      30.24F
Norwich        SUNNY     77  41  27 CALM      30.21F
Oneonta        SUNNY     75  37  25 CALM      30.24F
Penn Yan       FAIR      80  58  46 NW6       30.22F
Rome           FAIR      78  58  49 CALM      30.20F
Seneca Falls   CLEAR     81  55  41 CALM      30.20F
Sidney         SUNNY     79  54  41 W5        30.21F
Skaneateles    FAIR      77  59  53 CALM      30.22S
Syracuse       FAIR      80  55  42 VRB5      30.20F
$$

PAZ038>040-043-044-047-048-072-211900
...Northeast Pennsylvania...

CITY           SKY/WX    TMP DP  RH WIND       PRES   REMARKS
Hazleton       FAIR      77  50  38 W3        30.27F
Scranton       FAIR      81  53  37 NW3       30.21F
Towanda        CLEAR     81  55  41 NE3       30.21F
$$
&&
KEY
WCI = Wind Chill Index
VSB = Visibility
HX  = Heat Index
$$




USA.gov is the U.S. government's official web portal to all federal, state and local government web resources and services.